Tracking 23446 objects as of 19-Jun-2021
HD Live streaming from Space Station
objects crossing your sky now

ONEWEB-0237

Track ONEWEB-0237 now!
10-day predictions
ONEWEB-0237 is classified as:


NORAD ID: 48770
Int'l Code: 2021-045D
Perigee: 467.7 km
Apogee: 481.3 km
Inclination: 87.4 °
Period: 93.9 minutes
Semi major axis: 6845 km
RCS: Unknown
Launch date: May 28, 2021
Source: United Kingdom (UK)
Launch site: VOSTOCHNY COSMODROME (VOSTO)
aabbcc
Your satellite tracking list
Your tracking list is empty




NASA's NSSDC Master Catalog

Two Line Element Set (TLE):
1 48770U 21045D   21169.75001157 -.00900005  00000-0 -30899-1 0  9999
2 48770  87.4026 269.1668 0009980 176.8078 296.6457 15.32836482  1806
Source of the keplerian elements: AFSPC